TimeCDT,TemperatureF,Dew PointF,Humidity,Sea Level PressureIn,VisibilityMPH,Wind Direction,Wind SpeedMPH,Gust SpeedMPH,PrecipitationIn,Events,Conditions,WindDirDegrees,DateUTC
12:53 AM,12.9,10.0,88,30.32,10.0,NNW,8.1,-,N/A,,Overcast,330,2013-03-13 05:53:00
2:14 AM,10.4,8.6,92,30.25,10.0,NW,6.9,-,N/A,,Scattered Clouds,320,2013-03-13 07:14:00
2:53 AM,10.0,7.0,87,30.35,10.0,NW,6.9,-,N/A,,Clear,310,2013-03-13 07:53:00
3:23 AM,8.6,6.8,92,30.26,10.0,NW,10.4,-,N/A,,Scattered Clouds,310,2013-03-13 08:23:00
3:32 AM,8.6,6.8,92,30.26,10.0,NW,8.1,-,N/A,,Mostly Cloudy,320,2013-03-13 08:32:00
3:53 AM,9.0,6.1,88,30.35,10.0,NW,9.2,-,N/A,,Scattered Clouds,320,2013-03-13 08:53:00
4:08 AM,8.6,6.8,92,30.26,10.0,NW,6.9,-,N/A,,Mostly Cloudy,310,2013-03-13 09:08:00
4:53 AM,8.1,5.0,87,30.37,7.0,NW,8.1,-,N/A,,Overcast,310,2013-03-13 09:53:00
5:24 AM,8.6,5.0,85,30.28,10.0,WNW,5.8,-,N/A,,Scattered Clouds,300,2013-03-13 10:24:00
5:53 AM,6.1,3.0,87,30.38,10.0,WNW,6.9,-,N/A,,Clear,290,2013-03-13 10:53:00
6:53 AM,3.0,-0.9,84,30.39,10.0,NW,3.5,-,N/A,,Clear,320,2013-03-13 11:53:00
7:53 AM,1.9,-2.0,83,30.41,10.0,West,5.8,-,N/A,,Clear,280,2013-03-13 12:53:00
8:53 AM,3.9,1.0,88,30.43,10.0,NW,4.6,-,N/A,,Clear,310,2013-03-13 13:53:00
9:53 AM,8.1,3.9,83,30.43,10.0,WNW,4.6,-,N/A,,Clear,300,2013-03-13 14:53:00
10:53 AM,12.0,7.0,80,30.44,10.0,WNW,4.6,-,N/A,,Clear,300,2013-03-13 15:53:00
11:53 AM,17.1,9.0,71,30.43,10.0,WNW,4.6,-,N/A,,Clear,300,2013-03-13 16:53:00
12:53 PM,19.9,10.9,68,30.42,10.0,WNW,5.8,-,N/A,,Clear,300,2013-03-13 17:53:00
1:53 PM,21.0,10.9,65,30.41,10.0,West,5.8,-,N/A,,Clear,270,2013-03-13 18:53:00
2:53 PM,21.9,12.0,66,30.39,10.0,Variable,4.6,-,N/A,,Clear,0,2013-03-13 19:53:00
3:53 PM,21.9,12.9,68,30.36,10.0,South,8.1,-,N/A,,Clear,190,2013-03-13 20:53:00
4:53 PM,21.0,12.9,71,30.35,10.0,South,6.9,-,N/A,,Clear,190,2013-03-13 21:53:00
5:53 PM,21.0,12.0,68,30.35,10.0,SSW,5.8,-,N/A,,Clear,200,2013-03-13 22:53:00
6:53 PM,21.0,12.9,71,30.34,10.0,SSE,5.8,-,N/A,,Clear,160,2013-03-13 23:53:00
7:53 PM,21.0,12.9,71,30.32,10.0,South,9.2,-,N/A,,Overcast,170,2013-03-14 00:53:00
8:53 PM,21.0,14.0,74,30.29,10.0,SSE,10.4,-,N/A,,Overcast,150,2013-03-14 01:53:00
9:53 PM,21.0,15.1,78,30.27,10.0,SSE,8.1,-,N/A,,Overcast,150,2013-03-14 02:53:00
10:53 PM,21.9,16.0,78,30.23,10.0,SSE,13.8,-,N/A,,Overcast,150,2013-03-14 03:53:00
11:53 PM,23.0,17.1,78,30.20,10.0,SSE,12.7,-,N/A,,Overcast,150,2013-03-14 04:53:00